Zurück zum Katalog

GSAT 31

AktivKommunikationGEO
NORAD 44035·PAYLOAD·🇮🇳 India

Gestartet Feb 5, 2019 von Guiana Space Centre

Loading…

TLE

AktuellSource: Space-Track

Epoche: Sep 14, 2026, 14:01 UTC

1 44035U 19007B   26257.58463439  .00000000  00000-0  00000-0 0  9997
2 44035   0.0193 169.1373 0003702  54.5937  28.1629  1.00270056 27868

Verfolge GSAT 31 in Echtzeit mit AllMySat

Download on the App Store